Wind_Speed
93 93 93 92 92 93 93 94 94 94 95 96 96 96 96 96 96 95 95 95 95 94 94 94 94 93 93 93 92 92 91 91 90 90 90 90 90 90 91 91 92 92 93 93 93 93 93 93 93 93 93 93 93 93 92 92 92 92 92 92 92 91 91 91 91 91 90 90 90 90 90 90 91 91 91 91 91 91 91 91 91 91 91 91 91 91
93 92 92 92 92 92 93 93 93 94 94 95 95 95 95 95 95 95 94 94 93 93 93 93 92 92 92 92 91 91 91 90 90 90 90 91 91 92 92 93 93 94 94 94 94 94 94 94 94 93 93 93 93 93 93 93 93 92 92 92 92 92 92 92 91 92 91 91 91 91 91 92 92 92 92 92 92 92 92 92 92 92 93 93 93 93
92 92 91 91 91 91 92 92 93 93 93 93 94 94 94 94 94 93 93 93 92 92 92 92 91 91 91 91 91 91 91 91 91 91 91 92 92 93 93 94 94 95 95 95 95 95 94 94 94 93 93 93 93 93 93 93 93 93 92 92 92 92 92 93 92 93 93 93 93 93 93 93 93 93 94 94 94 94 94 94 94 94 94 94 95 95
91 91 91 91 91 91 91 92 92 92 92 92 92 92 92 92 92 92 92 92 92 91 91 91 91 91 91 91 91 91 92 92 92 92 93 93 93 94 94 95 95 95 95 95 95 94 94 94 94 94 93 93 93 93 93 93 93 93 93 93 93 93 94 94 94 94 94 94 95 95 95 95 95 95 96 96 96 96 96 96 96 96 96 96 96 96
90 90 90 90 90 91 91 91 91 90 90 91 91 91 91 91 91 91 91 91 91 91 91 91 91 91 92 92 92 93 93 93 93 94 94 94 94 95 95 95 95 95 95 95 95 95 94 94 94 93 93 93 93 93 93 93 94 94 94 94 94 95 95 95 96 96 96 96 96 97 97 97 97 97 98 98 98 98 98 98 98 98 98 98 98 98
90 90 90 90 90 90 90 90 90 90 90 90 90 90 90 90 90 90 90 91 91 91 91 91 92 92 93 93 94 94 94 95 95 95 95 95 95 95 95 95 96 96 96 95 95 95 95 94 94 94 94 94 94 94 95 95 95 95 96 96 96 97 97 97 97 97 98 98 98 98 99 99 99 99 99 99 100 100 100 100 100 100 100 100 100 100
91 90 90 89 90 90 89 89 89 89 89 89 90 90 90 90 90 90 90 90 91 91 91 92 92 93 94 95 95 95 96 96 96 96 96 96 96 96 96 96 96 96 96 96 96 95 95 95 95 95 95 95 96 96 96 97 97 97 97 98 98 98 98 98 99 99 99 99 99 99 100 100 100 100 100 101 101 101 101 101 101 101 101 101 101 101
90 90 90 89 89 89 89 89 89 89 89 89 89 90 90 90 90 90 90 91 91 91 92 93 93 94 95 96 96 97 97 97 97 97 97 96 97 97 97 97 97 97 97 97 96 96 96 96 96 96 97 97 98 98 98 98 99 99 99 99 99 99 99 99 99 99 100 100 100 100 100 100 100 101 101 101 101 101 102 102 102 102 102 102 102 102
90 90 90 89 89 89 89 90 89 89 89 89 89 89 90 90 90 90 91 91 92 92 93 93 94 95 96 97 97 98 98 97 97 97 97 98 98 99 99 99 98 98 98 98 97 97 98 98 98 98 99 99 99 100 100 100 100 100 100 100 100 100 99 99 99 100 100 100 100 100 100 100 100 101 101 101 101 101 102 102 102 102 102 102 102 102
89 89 89 89 89 89 89 90 90 89 89 89 89 89 89 90 90 91 92 92 93 93 93 94 95 96 97 97 98 98 98 98 98 98 99 99 100 100 100 100 99 99 99 99 99 99 100 100 100 100 101 101 101 101 101 101 100 100 100 100 100 99 99 99 99 99 99 99 99 99 99 100 100 100 100 100 100 101 101 101 101 101 101 102 102 102
89 89 89 89 90 89 89 89 90 89 89 89 89 89 90 90 90 91 92 93 94 94 94 95 96 97 98 98 98 98 98 99 99 99 100 100 101 101 101 100 100 100 100 101 101 101 102 102 102 102 102 102 102 102 101 101 101 100 100 99 99 99 99 98 98 98 98 98 98 98 98 98 99 99 99 99 99 99 100 100 100 100 100 100 100 101
89 89 89 90 90 89 89 89 89 89 89 89 90 90 90 91 91 91 93 94 94 95 95 96 96 97 98 99 99 99 99 100 100 101 101 102 102 101 101 101 101 101 102 102 103 103 104 104 104 104 103 103 103 102 101 101 100 100 99 99 98 98 98 97 97 97 97 97 97 97 97 97 97 97 97 97 97 97 98 98 98 98 98 98 99 99
89 89 89 89 89 89 89 89 89 89 89 90 90 91 91 92 92 92 93 94 95 95 96 97 98 98 99 99 99 100 100 100 101 101 102 102 102 101 101 101 102 103 103 104 104 105 105 105 105 104 104 103 103 102 101 100 100 99 98 98 97 96 96 95 95 95 95 95 95 95 95 95 95 95 95 95 95 95 95 95 95 96 96 96 96 96
88 89 88 89 89 89 89 89 89 89 90 90 91 91 92 92 93 93 94 95 95 96 96 97 99 100 100 100 100 99 100 100 101 101 102 102 102 101 101 102 103 104 105 105 106 106 106 106 105 105 104 103 102 101 100 99 98 97 97 96 95 94 94 93 93 92 92 92 92 92 92 92 92 92 92 92 92 92 92 92 93 93 93 93 93 94
87 87 88 88 88 88 88 89 89 89 90 91 91 92 92 93 93 94 95 96 96 97 97 98 100 100 101 100 99 99 99 99 100 101 101 102 102 102 102 103 104 105 106 106 107 107 106 106 105 105 104 102 101 100 99 98 97 96 94 94 93 92 91 91 90 90 90 89 89 89 89 89 89 89 90 89 89 89 89 89 90 90 90 90 90 91
86 86 87 87 88 88 88 89 89 90 91 91 92 92 93 94 94 95 95 96 97 98 98 100 101 101 101 100 99 98 98 98 99 100 101 102 103 103 103 104 106 107 107 107 107 107 106 105 104 104 102 101 100 98 97 95 94 93 92 91 90 89 89 88 87 87 87 87 86 86 86 86 86 86 86 86 86 86 86 86 86 86 86 87 87 87
85 85 86 86 87 88 88 89 89 90 91 92 92 93 93 94 95 96 96 97 98 99 99 100 101 102 102 101 99 98 97 97 98 100 101 103 104 104 104 105 106 107 107 107 107 106 105 104 104 102 101 99 98 96 94 93 92 90 89 88 87 86 85 85 84 84 84 84 83 83 83 83 83 83 83 83 83 83 83 83 83 83 83 83 84 84
84 84 85 86 87 88 89 89 90 91 91 92 93 93 94 95 96 96 97 98 99 99 100 100 100 101 101 101 100 98 97 98 99 101 102 104 105 105 105 105 106 107 107 106 106 105 104 103 102 101 99 97 95 93 92 90 89 87 86 85 84 83 82 81 81 81 80 80 80 80 80 80 80 80 80 80 80 80 80 80 80 80 80 80 80 81
83 84 84 86 87 88 89 90 91 91 92 93 93 94 95 96 96 97 98 98 99 99 100 100 100 100 99 99 99 98 98 99 100 102 104 105 106 106 105 106 106 106 106 105 104 103 103 101 100 98 96 94 92 90 88 87 85 84 82 81 80 79 79 78 78 78 77 77 77 77 77 77 77 77 77 77 77 77 77 77 77 77 77 78 78 78
83 84 85 86 87 88 89 90 91 91 92 93 94 95 96 96 97 98 98 98 98 99 99 99 99 98 98 99 99 99 99 100 101 103 104 106 106 106 105 105 105 105 105 104 103 102 100 99 98 95 93 91 89 87 85 83 81 80 79 78 77 76 76 75 75 75 75 74 74 75 75 74 75 75 74 74 74 74 75 75 75 75 75 75 75 76
83 84 85 86 87 88 90 91 91 92 93 93 94 95 96 97 97 98 98 98 98 98 97 98 98 98 98 99 100 101 101 101 102 104 105 106 106 106 105 104 104 104 103 102 101 99 98 97 95 93 90 88 85 83 81 79 78 76 75 74 74 73 73 72 72 72 72 72 72 72 72 72 72 72 72 72 72 72 72 72 72 73 73 73 73 74
83 85 86 87 87 89 90 91 92 92 93 93 94 95 96 96 96 97 97 97 97 97 97 98 98 99 100 101 102 102 102 102 103 104 105 106 106 105 104 103 102 102 101 100 99 97 96 94 92 89 87 84 82 80 77 76 74 73 72 72 71 71 70 70 69 69 69 69 69 69 69 69 69 69 69 69 69 69 70 70 70 70 70 71 71 72
84 85 86 87 88 89 90 91 92 92 93 93 94 95 95 95 95 96 96 96 96 97 98 99 100 101 101 102 103 103 102 102 102 103 104 105 105 104 102 101 100 100 99 98 96 95 93 91 89 86 84 81 79 77 75 73 71 70 70 69 69 68 68 67 67 67 67 67 67 67 67 67 67 67 67 67 67 67 67 67 67 68 68 69 69 70
84 85 86 87 88 89 90 91 92 92 93 93 94 94 94 94 94 95 95 96 96 98 99 100 102 103 103 103 103 103 103 102 101 102 103 104 104 102 100 99 98 97 96 95 93 92 90 88 86 83 81 79 76 74 72 71 69 68 68 67 67 66 65 65 64 64 64 65 65 65 66 66 66 66 65 65 65 64 65 65 65 66 66 67 67 68
84 86 87 88 89 89 90 91 91 92 92 93 93 93 93 94 94 95 95 96 98 99 100 102 103 104 105 105 104 104 102 101 101 101 102 102 101 100 98 96 95 94 93 92 90 88 87 85 83 80 78 76 74 72 70 69 68 67 66 65 65 64 63 63 63 63 63 63 64 64 65 65 65 64 64 63 63 63 63 63 63 64 65 65 66 66
85 86 87 88 89 89 90 91 91 91 92 92 92 93 93 94 95 96 97 98 99 101 102 104 105 106 105 105 105 104 102 100 100 99 100 100 99 98 95 93 92 91 90 88 86 85 84 82 80 78 76 74 72 70 69 67 66 65 65 64 63 62 62 61 61 61 62 62 63 64 64 64 64 63 62 62 61 61 61 61 62 62 63 64 64 65
85 86 87 88 89 89 90 90 91 91 91 91 92 93 94 95 96 98 100 100 101 102 104 105 106 106 106 106 105 103 101 100 99 97 97 96 96 95 92 90 88 87 86 84 83 82 81 79 77 75 74 72 70 69 67 66 65 64 63 63 62 61 61 60 60 61 61 62 63 63 64 63 63 62 61 61 60 60 60 60 61 61 62 62 63 63
86 86 87 88 89 89 90 90 90 91 91 92 93 94 95 96 98 100 102 102 103 104 106 106 107 107 107 106 104 102 100 98 97 95 94 93 93 91 89 87 85 83 82 81 79 79 78 77 75 73 72 70 68 67 65 64 63 63 62 61 61 60 60 60 60 60 61 62 62 63 63 63 62 61 61 60 59 59 59 60 60 60 61 61 61 61
86 87 87 88 89 89 90 90 91 91 92 93 95 96 97 98 100 102 103 104 105 106 107 107 107 107 106 105 103 100 98 96 94 92 91 90 89 87 85 83 81 79 78 77 76 76 75 74 73 72 70 68 67 65 64 63 62 62 62 61 60 60 59 59 59 59 60 61 62 63 63 63 62 61 60 59 59 59 58 59 59 59 59 59 60 60
86 87 87 88 89 89 90 91 92 93 94 95 96 98 99 100 102 103 104 105 106 107 108 107 106 105 104 102 100 98 95 92 90 88 87 86 85 84 81 80 78 76 74 74 73 73 73 73 71 70 68 67 65 64 63 62 62 62 61 61 60 60 59 59 59 59 60 60 61 62 62 62 61 60 59 58 57 57 57 58 58 58 58 58 58 58
86 87 88 89 89 90 91 92 93 95 96 97 98 100 101 102 103 104 105 106 107 107 107 106 104 102 100 98 97 95 92 89 86 84 83 83 82 80 78 77 75 73 72 71 71 71 71 71 70 69 67 66 64 63 62 62 61 61 61 61 60 60 59 58 58 58 58 59 60 61 61 61 60 58 57 56 56 56 56 56 56 56 57 56 56 56
87 88 89 90 90 92 93 94 95 96 98 99 100 101 103 104 105 105 106 106 106 105 105 103 101 99 96 94 92 90 88 86 83 81 80 79 78 76 75 73 72 71 70 69 68 68 69 69 69 68 67 66 65 63 62 61 61 61 61 61 60 59 59 58 57 56 57 57 58 59 59 59 58 57 55 55 54 54 55 55 55 55 55 55 54 54
88 89 90 91 92 93 94 95 97 98 99 101 102 103 104 105 105 106 105 105 104 103 101 100 97 95 92 90 88 86 84 82 80 77 76 75 74 73 72 71 70 69 68 67 67 66 66 67 67 67 67 66 65 64 62 62 61 61 61 60 60 59 58 56 55 55 55 55 56 57 57 57 56 55 53 53 52 52 52 53 53 53 53 53 52 52
89 90 91 92 93 94 96 97 98 100 101 102 103 104 105 105 105 105 104 102 101 99 97 95 93 91 89 87 85 83 80 78 76 74 72 71 71 70 69 69 68 68 67 66 66 65 65 65 66 66 66 66 65 64 63 62 61 61 60 60 59 58 56 55 54 53 53 53 54 55 55 55 54 52 51 50 50 50 50 51 51 51 51 50 50 50
90 91 93 94 95 96 98 99 100 101 102 103 104 104 104 104 103 102 101 99 97 95 93 91 89 87 85 83 82 80 77 75 72 70 69 68 68 68 67 67 67 66 66 65 65 65 65 65 65 65 66 66 66 65 63 62 61 60 59 58 57 56 54 53 51 51 51 51 52 53 53 52 51 50 49 48 48 48 48 48 48 48 48 48 48 48
92 93 94 96 97 99 100 101 102 103 103 103 103 103 102 101 100 99 97 95 93 91 89 87 85 83 81 80 78 76 74 71 69 67 66 65 65 65 66 66 66 65 65 65 65 64 65 65 65 65 65 65 65 65 63 62 61 59 58 57 56 54 52 51 49 49 49 49 50 51 51 50 49 48 47 46 46 46 46 46 46 46 46 46 46 45
94 96 97 98 99 101 101 102 103 103 103 102 101 101 99 98 97 95 93 91 89 87 85 83 81 80 78 76 74 72 71 69 66 65 64 63 63 64 64 65 65 65 65 65 64 64 64 64 64 64 64 64 64 63 62 61 60 58 57 56 54 52 50 48 47 46 47 47 48 48 48 48 47 46 45 44 43 43 43 44 44 44 44 44 44 43
96 98 99 100 101 101 102 102 102 101 101 100 99 97 96 94 93 91 89 87 85 84 82 80 78 77 75 72 71 69 67 65 64 63 62 61 61 62 63 64 64 64 64 64 64 64 64 64 63 63 63 62 62 61 61 59 58 57 56 55 53 51 48 46 44 44 44 45 45 46 46 46 45 44 43 42 41 41 41 41 42 42 42 42 42 42
98 99 100 101 101 101 101 101 100 99 98 96 95 94 92 91 89 87 85 84 82 80 79 77 75 74 71 69 68 66 64 63 62 61 60 60 60 61 62 63 63 64 64 64 63 63 63 62 62 61 61 60 60 59 58 57 56 55 55 54 52 49 46 44 42 41 41 42 43 44 44 44 43 42 41 40 39 39 39 40 40 40 40 40 40 40
99 100 101 100 100 100 99 98 97 96 95 93 92 90 88 87 85 84 82 80 79 77 76 74 72 70 69 67 65 63 62 61 60 59 59 59 59 60 61 62 63 63 63 63 63 62 61 60 59 58 58 57 57 56 56 55 55 54 53 52 51 48 45 42 40 39 39 40 41 42 42 42 41 40 39 38 38 37 38 38 39 39 39 39 39 39
100 100 99 99 98 97 96 95 94 93 91 90 88 87 85 83 82 80 79 77 76 74 72 71 69 68 66 64 62 61 60 59 58 57 57 58 59 60 61 61 62 62 62 62 61 60 59 58 57 56 55 54 54 53 54 53 53 52 51 50 49 46 43 40 38 37 37 38 39 40 40 40 39 38 37 36 36 36 37 37 38 38 38 37 37 37
98 98 97 96 95 94 93 92 91 90 88 86 85 83 82 80 79 77 76 74 73 71 69 68 67 65 63 62 60 59 58 57 56 56 57 58 58 59 60 61 61 61 61 60 59 58 57 55 54 53 52 51 51 51 51 51 51 51 50 48 46 43 41 39 37 36 36 36 37 38 38 38 37 36 35 35 35 35 36 36 36 36 36 36 36 36
96 95 95 94 93 92 91 89 88 86 85 83 81 80 78 77 76 74 73 72 70 68 67 65 64 63 62 60 59 57 56 56 55 56 56 57 58 59 60 60 60 59 59 58 57 56 54 53 51 50 49 48 48 48 49 49 49 49 47 45 43 40 38 37 35 35 35 35 36 36 36 36 35 34 34 33 33 33 34 35 35 35 35 35 35 35
94 93 92 91 90 89 88 86 85 83 81 79 78 76 75 73 72 71 70 69 67 66 64 63 62 61 60 59 58 57 56 55 55 55 56 57 58 58 58 58 58 57 57 56 54 53 52 50 48 47 46 45 45 46 47 47 48 47 45 42 40 38 36 35 34 34 34 35 35 35 34 34 33 33 32 32 32 32 33 34 34 34 33 33 33 33
92 91 90 89 88 86 85 83 81 79 78 76 75 73 72 70 69 68 67 66 64 63 62 61 60 59 59 58 57 57 56 56 55 55 56 56 56 56 57 56 56 55 54 53 52 50 49 47 46 44 43 43 43 44 45 45 45 44 42 40 37 35 34 33 33 33 34 34 34 34 33 33 32 31 31 30 30 31 32 32 32 32 31 31 31 31
90 89 88 86 85 83 81 79 78 76 74 73 72 70 69 67 66 65 64 63 62 61 60 59 58 58 58 57 57 57 57 56 56 56 55 55 55 54 54 54 53 52 51 50 49 47 46 44 43 41 41 41 42 42 43 43 42 41 40 38 36 34 32 32 32 32 33 33 33 33 32 32 31 30 30 29 29 30 31 31 31 30 30 29 29 30
88 87 85 83 82 80 78 76 74 73 72 70 69 67 66 65 63 62 61 60 59 59 58 57 57 57 57 57 57 57 57 57 56 55 55 54 53 53 52 51 50 49 48 47 46 45 43 41 40 39 38 39 40 41 41 41 40 39 38 36 34 33 32 31 31 31 32 32 33 33 32 31 31 30 29 28 28 29 29 30 29 29 28 28 28 28
86 84 82 80 78 76 75 73 72 70 69 67 66 64 63 62 60 60 59 58 57 57 56 56 56 56 57 57 56 56 56 56 56 55 54 53 52 51 50 49 48 47 46 44 43 42 40 39 37 36 36 37 38 39 39 39 38 37 36 35 34 32 31 31 30 31 31 32 32 32 32 31 31 30 29 28 28 28 28 29 29 28 27 27 27 27
83 81 79 77 75 74 72 71 69 68 66 65 63 62 60 59 58 57 57 56 56 56 56 56 56 56 56 56 56 56 55 55 54 53 52 51 50 49 48 46 45 44 43 42 40 39 37 36 34 33 33 34 35 37 37 37 36 35 34 34 33 32 31 31 30 30 30 31 31 32 32 31 31 30 29 28 28 28 28 28 28 28 27 26 26 26
80 78 76 74 73 71 70 68 67 65 64 62 61 60 58 57 56 55 55 55 54 55 55 55 56 56 56 56 55 55 54 53 52 51 50 49 48 47 46 44 43 42 40 39 38 37 35 33 32 31 31 32 33 34 35 35 35 34 34 33 33 32 31 31 30 30 30 30 30 31 31 31 30 30 29 29 28 28 28 28 27 27 27 26 26 25
76 75 73 71 70 69 67 66 65 63 61 60 59 57 56 55 54 54 53 54 54 54 55 55 55 56 56 55 54 53 52 51 49 48 48 47 46 45 44 42 41 40 38 37 36 35 33 32 30 29 28 29 31 32 33 33 34 34 33 33 32 32 31 31 30 30 29 29 29 30 30 30 30 29 29 28 28 28 27 27 27 27 26 26 25 25
Wind_Direction
284 285 285 286 286 287 287 287 287 288 288 288 289 289 290 291 291 292 293 293 293 294 294 294 294 294 293 293 293 293 293 292 292 292 292 292 292 292 293 293 293 293 293 292 292 292 291 291 291 291 290 290 290 290 289 289 289 288 288 287 287 286 286 285 285 284 283 283 282 281 281 280 280 279 278 277 277 276 275 274 273 272 272 271 270 269
285 285 285 286 286 287 287 287 287 287 287 288 289 290 291 292 292 293 293 294 294 294 294 294 294 293 293 293 293 293 292 292 292 292 292 292 293 293 293 293 292 292 292 292 291 291 291 291 290 290 290 290 290 290 289 289 289 288 288 287 287 286 286 285 285 284 283 283 282 281 281 280 279 279 278 277 276 275 274 273 273 272 271 270 270 269
285 285 285 286 286 286 286 286 287 287 288 289 290 291 292 292 293 293 294 294 294 294 294 294 294 293 293 293 293 292 292 292 292 292 292 292 292 292 292 292 292 292 291 291 291 290 290 290 290 290 290 290 290 290 289 289 288 288 288 287 287 286 286 285 285 284 283 283 282 281 280 280 279 278 277 276 276 275 274 273 272 271 270 270 269 268
284 285 285 285 285 286 286 286 287 288 289 290 291 292 292 293 293 293 294 294 294 294 294 294 293 293 293 293 292 292 292 292 292 292 292 292 292 292 292 291 291 291 291 291 291 291 291 291 291 291 291 290 290 290 289 289 288 288 288 287 287 286 285 285 284 283 283 282 281 281 280 279 278 277 277 276 275 274 273 272 272 271 270 269 268 268
284 284 284 285 285 286 286 287 288 289 290 291 291 292 292 293 293 294 294 294 294 294 293 293 293 293 293 293 292 292 292 292 292 292 292 292 292 292 291 291 291 291 291 291 291 291 291 291 291 291 291 291 290 290 290 289 288 288 287 287 286 285 285 284 283 283 282 281 280 280 279 278 277 277 276 275 274 274 273 272 271 270 270 269 268 267
283 284 284 285 285 286 287 288 289 290 291 291 292 292 293 293 293 293 293 293 293 293 293 293 293 293 293 292 292 292 292 292 292 292 292 292 292 292 292 292 292 292 292 292 292 292 292 292 292 292 292 291 291 290 289 289 288 287 287 286 285 285 284 283 282 282 281 280 280 279 278 277 277 276 275 275 274 273 272 272 271 270 269 269 268 267
284 284 285 285 286 287 288 289 290 291 291 292 292 292 293 293 293 293 293 293 293 293 293 293 293 293 292 292 292 292 292 292 292 292 292 292 293 293 293 293 293 293 293 293 293 293 293 293 293 292 292 291 291 290 289 288 288 287 286 285 285 284 283 283 282 281 280 280 279 278 278 277 276 276 275 274 274 273 272 272 271 270 269 269 268 267
285 285 286 286 287 288 289 290 290 291 292 292 292 293 293 293 293 293 293 292 292 292 292 292 292 292 292 292 292 292 292 292 293 293 293 293 293 294 294 294 294 294 294 294 294 294 294 293 293 292 292 291 290 289 288 288 287 286 286 285 284 284 283 282 282 281 281 280 279 279 278 277 277 276 275 274 274 273 272 272 271 270 269 269 268 267
285 286 286 287 288 289 290 290 291 291 292 292 292 293 293 293 293 292 292 292 292 292 292 292 292 292 292 292 292 292 292 293 293 294 294 294 294 294 294 295 295 295 295 295 295 294 294 293 293 292 291 290 289 289 288 288 287 286 286 285 285 284 283 283 282 282 281 280 280 279 278 278 277 276 276 275 274 273 273 272 271 270 270 269 268 268
285 286 287 288 288 289 290 291 291 292 292 292 292 292 292 292 292 292 292 292 291 291 291 291 291 291 292 292 292 292 293 293 294 294 295 295 295 295 295 295 295 295 295 295 295 294 294 293 292 291 291 290 289 289 288 288 287 287 286 286 285 285 284 283 283 282 282 281 281 280 279 279 278 277 276 275 275 274 273 272 272 271 270 269 269 268
285 285 287 288 289 289 290 291 291 292 292 292 292 291 291 291 291 291 291 291 291 291 291 291 291 291 292 292 292 293 293 294 294 295 295 295 295 295 295 295 296 295 295 295 294 294 293 293 292 292 291 290 290 289 289 288 288 287 287 286 286 285 285 284 284 283 283 282 281 281 280 279 278 278 277 276 275 274 273 273 272 271 270 270 269 268
284 285 286 288 289 289 290 290 291 291 291 291 291 291 291 290 291 291 291 291 291 291 291 291 292 292 292 292 293 293 294 294 295 295 295 295 295 295 295 295 295 295 295 294 294 294 293 293 292 292 291 291 290 290 289 289 288 288 287 287 287 286 286 285 285 284 283 283 282 281 280 279 279 278 277 276 275 275 274 273 272 272 271 270 270 269
284 285 287 288 288 289 290 290 290 290 290 290 290 290 290 290 290 290 290 290 291 291 291 292 292 292 292 292 293 293 294 295 295 295 295 295 295 295 295 295 295 295 295 294 294 294 294 293 293 292 292 291 291 290 290 289 289 288 288 288 287 287 286 286 285 285 284 283 282 281 280 279 279 278 277 276 275 275 274 273 273 272 272 271 270 270
284 286 287 288 288 289 289 290 290 290 290 290 290 290 290 290 290 290 290 290 291 291 291 291 292 292 292 292 293 294 294 295 295 295 295 295 295 295 295 295 295 295 295 295 295 294 294 294 293 293 292 292 291 291 290 290 289 289 289 288 288 287 287 286 286 285 284 283 282 281 280 279 278 278 277 276 276 275 274 274 273 273 272 271 271 270
285 286 287 288 288 289 289 289 289 289 289 289 289 290 290 290 290 290 290 291 291 291 291 292 292 292 292 293 293 294 294 294 294 294 294 295 295 295 295 296 296 296 295 295 295 295 294 294 294 293 292 292 291 291 291 290 290 290 289 289 288 288 287 287 286 285 284 283 282 281 280 279 278 278 277 276 276 275 275 274 274 273 272 272 271 271
286 286 287 287 288 288 288 288 289 289 289 289 289 289 290 290 290 290 290 291 291 291 291 292 292 292 293 293 294 294 294 294 294 294 295 295 295 296 296 296 296 296 296 296 295 295 295 294 294 293 293 292 292 292 291 291 291 290 290 290 289 288 288 287 286 285 284 283 282 281 280 279 279 278 277 277 276 276 275 275 274 273 273 272 272 271
286 286 287 287 287 288 288 288 288 288 289 289 289 289 289 290 290 290 290 291 291 291 292 292 292 292 293 293 294 295 295 295 295 295 296 296 296 296 297 297 297 297 296 296 296 295 295 294 294 293 293 292 292 292 292 292 291 291 290 290 289 288 287 286 285 284 283 283 282 281 280 280 279 278 278 277 277 276 276 275 274 274 273 272 272 271
286 286 287 287 287 287 287 288 288 288 288 289 289 289 290 290 290 290 291 291 291 292 292 292 292 292 292 293 294 295 295 296 296 296 297 297 297 297 297 297 297 297 297 296 296 295 295 294 294 293 293 293 293 292 292 292 292 291 291 290 289 288 287 286 285 284 283 282 282 281 280 280 279 279 278 278 277 277 276 275 275 274 273 273 272 271
286 286 286 287 287 287 287 287 288 288 289 289 289 290 290 290 290 291 291 291 291 292 292 292 292 292 293 293 294 295 296 297 297 297 298 298 298 298 298 298 298 297 297 297 296 295 295 294 294 294 293 293 293 293 293 292 292 291 290 290 289 288 287 286 285 284 283 282 282 281 281 280 280 279 279 278 278 277 276 276 275 275 274 273 273 272
286 286 286 286 286 287 287 287 288 288 289 289 290 290 290 290 291 291 291 291 291 292 292 292 292 293 294 294 295 296 297 298 298 298 298 298 298 298 298 298 298 298 297 297 296 296 295 295 294 294 294 293 293 293 293 292 292 291 290 289 288 287 286 285 284 284 283 282 282 281 281 280 280 279 279 278 278 277 277 276 276 275 275 274 273 273
285 285 286 286 287 287 287 288 288 289 289 289 290 290 290 290 291 291 291 291 291 292 292 293 293 294 295 296 297 297 298 298 299 299 299 299 299 299 299 299 298 298 297 297 296 296 295 295 294 294 294 294 293 293 293 292 291 291 290 289 288 287 286 285 284 284 283 282 282 281 280 280 279 279 278 278 277 277 277 276 276 275 275 274 274 273
285 286 286 286 287 287 287 288 288 289 289 289 290 290 290 290 290 291 291 292 292 293 293 294 295 296 297 297 298 298 299 299 299 300 300 300 300 299 299 299 299 298 298 297 296 296 296 295 295 294 294 294 294 293 293 292 291 290 289 288 287 287 286 285 285 284 283 283 282 281 280 280 279 278 278 277 277 277 276 276 275 275 275 274 274 273
286 286 286 287 287 287 288 288 288 289 289 289 290 290 290 290 291 291 292 293 293 294 295 296 297 297 298 298 298 299 299 300 300 300 300 300 300 300 299 299 299 298 298 297 297 296 296 296 295 295 295 294 294 293 293 292 291 290 289 289 288 287 286 286 285 285 284 283 282 281 281 280 279 278 278 277 277 277 276 276 275 275 274 274 273 273
286 286 287 287 287 288 288 288 289 289 289 290 290 290 291 291 292 292 293 294 295 296 297 297 298 298 299 299 299 300 300 300 301 301 301 301 300 300 299 299 299 298 298 297 297 297 296 296 296 295 295 295 294 294 293 292 292 291 290 289 288 288 287 287 286 285 284 284 283 282 281 280 279 279 278 278 277 277 276 276 275 275 274 274 273 272
286 287 287 287 288 288 288 289 289 289 290 290 291 291 292 292 293 294 295 296 297 297 298 298 299 299 299 300 300 301 301 301 301 302 301 301 300 300 299 299 299 298 298 297 297 297 296 296 296 295 295 295 294 294 293 293 292 292 291 290 289 289 288 287 287 286 285 284 283 283 282 281 280 280 279 278 278 277 277 276 276 275 274 274 273 272
287 287 288 288 288 289 289 289 290 290 291 291 292 293 294 295 295 296 297 297 298 299 299 299 300 300 300 301 301 301 302 302 302 302 301 301 300 300 299 299 299 298 298 298 297 297 296 296 296 295 295 295 294 294 294 293 293 292 291 291 290 289 289 288 287 287 286 285 284 284 283 282 281 281 280 280 279 278 278 277 276 276 275 274 273 273
288 288 288 289 289 289 290 290 291 291 292 293 294 294 295 296 297 298 298 299 299 300 300 300 301 301 301 302 302 302 302 302 302 302 301 301 300 300 299 299 299 298 298 298 297 297 296 296 295 295 295 295 295 294 294 294 293 293 292 291 291 290 289 289 288 288 287 286 286 285 284 283 283 282 282 281 281 280 279 278 277 276 276 275 274 273
289 289 289 290 290 290 291 292 292 293 294 295 296 296 297 298 298 299 299 300 300 301 301 301 301 302 302 302 302 302 302 302 302 302 301 301 300 299 299 299 299 298 298 298 297 297 296 296 295 295 295 295 295 295 294 294 294 293 292 292 291 290 290 289 289 289 288 288 287 286 285 285 284 284 283 283 282 282 281 280 279 278 277 276 275 274
290 290 290 291 291 292 293 293 294 295 296 296 297 298 298 299 299 299 300 300 301 301 301 302 302 302 302 302 302 302 302 302 302 301 301 300 300 299 299 299 298 298 298 298 297 297 296 296 295 295 295 295 295 295 295 295 294 293 293 292 292 291 291 290 290 290 289 289 288 287 286 286 285 285 285 285 284 283 282 281 280 279 278 277 276 275
291 291 292 292 293 294 294 295 296 296 297 298 298 299 299 300 300 300 301 301 301 302 302 302 302 302 302 302 302 302 302 302 302 301 301 300 300 299 299 299 298 298 298 298 297 297 296 296 296 295 295 295 295 295 295 295 294 294 293 293 292 292 291 291 291 291 290 290 289 288 287 287 287 286 286 286 285 284 283 282 281 280 279 278 277 276
293 293 293 294 294 295 296 296 297 298 298 299 299 300 300 300 301 301 301 302 302 302 302 302 302 302 302 302 302 302 302 302 301 301 301 300 300 299 299 299 299 298 298 297 297 297 296 296 296 296 296 296 296 295 295 295 295 294 294 294 293 293 292 292 292 292 291 290 289 289 288 287 287 287 287 287 286 285 284 283 282 281 280 279 278 277
294 294 295 295 296 297 297 298 298 299 299 300 300 300 301 301 301 302 302 302 302 302 302 302 301 302 302 302 302 301 301 301 301 301 301 300 300 300 299 299 298 298 297 297 297 296 296 296 297 297 297 296 296 296 296 296 295 295 295 294 294 293 293 293 293 292 292 291 289 289 288 288 288 288 287 287 286 285 284 283 282 281 280 279 278 277
295 295 296 296 297 298 298 299 299 300 300 300 301 301 302 302 302 302 302 302 302 301 301 301 301 302 302 302 301 301 301 301 301 301 301 301 300 300 299 299 298 298 297 297 296 296 296 296 297 297 297 297 297 297 296 296 296 295 295 295 294 294 294 294 293 293 292 291 289 288 288 288 288 287 287 287 286 285 284 283 282 281 280 279 279 278
296 297 297 298 298 299 299 300 300 300 301 301 302 302 302 302 302 302 302 302 302 301 301 301 301 302 302 302 302 301 301 301 301 301 301 301 300 300 299 299 298 298 297 297 297 297 297 297 297 297 297 297 297 297 297 297 297 296 296 295 295 295 295 294 294 293 292 290 289 288 288 287 287 287 287 286 285 284 283 282 282 281 280 280 279 278
297 298 299 299 299 300 300 301 301 301 302 302 302 302 302 302 302 302 302 302 302 301 302 302 302 302 302 302 302 302 302 302 302 302 301 301 301 300 299 299 298 298 298 297 297 297 297 297 297 298 298 298 298 298 298 297 297 297 296 296 296 295 295 295 295 294 292 290 289 288 288 287 287 287 286 285 285 284 283 282 282 281 281 280 279 278
299 299 300 300 301 301 301 301 302 302 302 302 303 303 303 303 302 302 302 302 302 302 302 302 302 302 302 302 302 302 302 302 302 302 302 301 301 300 299 298 298 298 298 298 298 298 298 298 298 298 298 298 298 298 298 298 298 297 297 296 296 295 295 295 295 294 292 291 289 288 288 287 287 286 286 285 284 283 283 282 282 281 281 280 280 279
300 301 301 301 301 301 302 302 302 303 303 303 303 303 303 303 302 302 302 302 302 302 302 302 302 302 302 302 302 302 302 302 302 302 302 301 300 300 299 298 298 298 298 298 298 298 299 299 299 299 299 299 299 299 298 298 298 298 297 296 296 295 295 295 295 294 292 291 289 288 288 287 287 286 286 285 284 284 283 283 282 282 281 281 280 279
301 301 301 302 302 302 302 302 303 303 303 303 303 303 303 303 302 302 302 302 302 302 302 302 302 302 302 302 302 302 302 302 302 302 302 301 300 299 299 298 298 298 298 299 299 299 299 299 299 299 299 299 299 299 299 299 299 298 297 297 296 296 296 296 296 294 293 291 290 289 288 288 287 287 286 286 285 285 284 284 283 282 282 281 281 280
302 302 302 302 302 302 303 303 303 304 304 304 303 303 303 303 302 302 302 302 302 303 303 303 303 303 302 303 303 303 303 303 302 302 301 301 300 299 299 299 299 299 299 299 299 299 299 299 299 300 300 300 300 299 299 299 298 298 297 297 297 297 297 297 297 296 294 292 290 289 289 288 288 288 288 288 287 286 285 284 284 283 282 282 282 281
302 302 302 302 303 303 303 304 304 304 304 304 303 303 303 303 302 302 303 303 303 303 303 303 303 303 303 303 303 303 303 302 302 302 301 300 300 299 299 299 299 299 299 299 299 299 299 299 300 300 300 300 300 300 299 299 298 298 297 297 297 298 299 299 299 297 295 293 291 290 290 290 290 290 290 290 289 288 287 286 285 284 283 282 282 282
302 302 302 303 303 304 304 304 304 304 304 304 303 303 303 303 303 303 303 303 303 303 303 303 303 303 303 303 303 303 302 302 302 301 301 300 300 300 299 299 299 299 299 299 299 299 300 300 300 300 301 301 300 300 299 298 298 297 297 298 299 300 302 302 302 299 297 294 293 292 291 291 291 292 292 292 291 290 288 287 285 284 284 283 283 282
302 303 303 304 304 304 305 305 305 304 304 304 303 303 303 303 303 303 304 304 304 304 303 303 303 303 303 303 303 303 302 302 301 301 301 301 301 300 300 300 299 299 299 300 300 300 300 301 301 301 301 301 301 300 299 298 297 297 298 299 301 303 304 305 303 301 298 295 294 293 293 293 293 294 294 293 292 291 289 288 287 286 285 285 284 284
303 303 304 304 305 305 305 305 305 304 304 304 304 303 304 304 304 304 304 304 304 304 304 304 304 304 304 303 303 302 302 302 302 302 302 302 301 301 300 300 300 300 300 300 300 300 301 301 302 302 302 302 301 299 298 297 297 297 298 301 303 306 307 307 304 301 298 296 295 294 294 294 295 295 295 294 293 292 290 288 288 287 287 287 286 285
304 304 305 305 305 305 305 305 305 304 304 304 304 304 304 304 304 304 304 304 304 304 304 304 304 304 304 303 303 303 302 302 302 302 302 302 302 301 301 301 300 300 300 300 301 301 302 302 303 303 303 302 300 299 297 297 297 298 300 303 305 307 308 306 304 301 298 297 296 295 295 296 296 296 296 295 294 292 290 289 289 288 288 288 288 287
305 305 305 306 306 306 305 305 305 304 304 304 304 304 304 305 305 305 304 304 304 304 304 304 304 304 303 303 303 303 303 303 303 303 303 303 302 301 301 301 301 301 301 301 301 302 303 303 304 304 303 301 300 298 297 297 298 300 302 304 306 307 306 304 302 300 298 297 297 296 297 297 297 297 296 295 294 292 290 290 289 289 289 289 289 288
305 306 306 306 306 306 306 305 305 305 304 305 305 305 305 305 305 305 305 305 305 305 305 304 304 304 304 303 303 303 304 304 304 304 304 303 302 302 301 301 301 301 301 302 302 303 303 304 304 304 303 301 299 298 297 297 299 301 303 305 306 306 304 303 301 299 298 298 297 297 297 297 297 297 296 294 293 292 290 290 290 290 290 290 290 289
306 307 307 307 306 306 306 305 305 305 305 305 305 306 306 306 305 305 305 305 305 305 304 304 304 304 303 303 304 304 305 305 305 305 304 304 303 302 302 301 302 302 302 302 303 303 304 304 304 304 303 301 299 298 298 299 300 302 303 304 304 304 303 301 300 299 298 298 297 297 297 297 297 296 295 294 292 291 290 290 290 290 290 290 290 289
307 307 307 307 307 306 306 306 306 306 306 306 306 306 306 306 306 305 305 305 305 305 304 304 304 304 304 304 304 305 305 305 305 305 305 304 303 303 302 302 302 302 303 303 303 304 304 304 305 304 303 301 299 298 298 299 300 301 302 303 303 302 302 301 299 299 298 297 297 297 297 297 297 296 295 294 292 291 290 290 290 290 290 289 289 289
308 308 308 307 307 307 307 307 307 307 307 307 307 307 306 306 306 306 305 305 305 305 304 304 304 304 304 304 305 305 306 306 306 306 305 304 304 303 303 303 303 303 303 303 304 304 304 304 304 304 302 300 299 298 299 299 300 301 301 301 301 301 301 300 299 298 298 297 296 297 297 296 296 296 295 294 293 291 291 290 290 290 289 289 289 288
308 308 308 308 307 307 307 307 308 308 308 308 307 307 307 306 306 306 306 305 305 305 304 304 304 304 305 305 306 306 306 306 306 306 305 304 304 304 304 304 304 304 304 304 304 304 304 304 304 303 301 299 298 298 298 299 299 300 300 300 300 300 300 299 299 298 297 296 296 295 296 296 296 295 295 294 293 292 291 290 290 289 289 289 289 288
309 309 308 308 308 308 308 308 308 308 308 308 308 307 307 307 306 306 306 305 305 305 305 305 305 305 305 306 306 307 307 307 307 306 305 305 304 304 305 305 305 305 305 305 305 305 305 304 303 302 300 298 297 297 297 297 298 299 299 299 299 300 299 299 299 298 297 296 295 295 295 295 295 295 294 294 293 292 291 290 290 289 289 289 288 288
Height
10479 10478 10476 10476 10474 10471 10468 10468 10466 10464 10461 10459 10457 10456 10455 10453 10451 10450 10449 10447 10446 10444 10442 10440 10438 10436 10433 10431 10429 10427 10425 10424 10423 10422 10421 10420 10418 10417 10416 10414 10413 10411 10410 10408 10406 10405 10403 10401 10400 10399 10397 10395 10394 10392 10391 10389 10388 10386 10384 10383 10381 10380 10378 10377 10376 10375 10374 10373 10372 10371 10370 10370 10368 10368 10366 10366 10365 10365 10365 10364 10364 10363 10363 10362 10362 10362
10473 10471 10471 10470 10468 10466 10463 10461 10460 10458 10456 10453 10451 10450 10448 10447 10445 10443 10442 10440 10438 10436 10435 10432 10430 10428 10425 10423 10421 10420 10418 10416 10415 10415 10413 10412 10411 10410 10408 10406 10405 10403 10401 10400 10398 10396 10395 10393 10392 10391 10389 10387 10385 10384 10382 10380 10378 10376 10375 10373 10372 10370 10369 10368 10366 10365 10365 10363 10363 10361 10360 10360 10358 10357 10356 10355 10355 10354 10353 10353 10353 10352 10351 10351 10351 10351
10468 10465 10464 10463 10462 10460 10456 10455 10453 10452 10451 10448 10446 10444 10443 10441 10438 10436 10435 10433 10431 10429 10427 10425 10423 10420 10418 10415 10413 10412 10410 10409 10408 10407 10406 10405 10403 10402 10400 10399 10397 10395 10393 10391 10390 10388 10386 10385 10383 10382 10380 10379 10377 10375 10373 10371 10370 10368 10366 10365 10363 10361 10360 10358 10357 10356 10355 10354 10353 10351 10350 10349 10348 10346 10345 10345 10343 10343 10342 10341 10341 10340 10340 10340 10340 10339
10462 10460 10458 10456 10455 10453 10451 10449 10448 10446 10445 10443 10441 10438 10436 10435 10432 10430 10428 10426 10424 10421 10419 10417 10415 10413 10410 10408 10406 10404 10403 10401 10400 10400 10398 10397 10396 10394 10393 10391 10388 10386 10385 10383 10381 10379 10378 10376 10375 10373 10371 10370 10368 10366 10363 10362 10360 10358 10356 10355 10354 10352 10351 10350 10348 10346 10345 10344 10342 10341 10340 10338 10337 10336 10335 10333 10332 10331 10330 10330 10329 10328 10328 10328 10328 10328
10456 10454 10452 10451 10449 10446 10445 10444 10443 10441 10440 10438 10435 10433 10431 10428 10426 10424 10422 10420 10417 10415 10412 10410 10407 10405 10402 10400 10398 10396 10395 10394 10393 10391 10390 10389 10388 10386 10384 10382 10380 10378 10375 10373 10372 10370 10368 10367 10365 10364 10362 10360 10358 10356 10354 10352 10351 10349 10348 10346 10345 10343 10341 10340 10338 10336 10335 10333 10332 10330 10329 10327 10326 10324 10323 10321 10320 10319 10318 10317 10316 10316 10316 10315 10315 10315
10450 10448 10447 10445 10443 10441 10440 10438 10437 10436 10434 10431 10429 10427 10425 10423 10420 10418 10415 10413 10410 10408 10405 10402 10400 10397 10395 10392 10390 10388 10387 10386 10385 10383 10382 10381 10379 10377 10375 10373 10370 10368 10366 10364 10362 10361 10359 10357 10356 10354 10352 10350 10348 10346 10345 10343 10341 10340 10338 10336 10335 10333 10331 10330 10328 10326 10325 10323 10321 10319 10318 10316 10314 10313 10311 10310 10308 10307 10306 10305 10305 10304 10303 10303 10303 10303
10443 10442 10441 10440 10438 10436 10435 10433 10431 10430 10428 10425 10423 10420 10418 10416 10414 10411 10408 10406 10403 10401 10398 10395 10392 10390 10387 10385 10382 10380 10379 10378 10376 10375 10373 10372 10370 10368 10365 10363 10360 10358 10356 10355 10353 10351 10349 10348 10346 10344 10343 10340 10338 10336 10335 10333 10331 10330 10328 10326 10325 10323 10321 10319 10317 10315 10313 10311 10310 10308 10306 10304 10302 10301 10299 10298 10296 10295 10294 10293 10292 10291 10291 10291 10290 10290
10436 10435 10435 10434 10432 10430 10428 10427 10426 10424 10423 10420 10417 10414 10411 10409 10407 10405 10402 10399 10396 10394 10391 10388 10385 10383 10380 10377 10375 10372 10371 10370 10368 10366 10365 10363 10360 10358 10355 10353 10350 10348 10346 10345 10343 10341 10339 10338 10336 10334 10333 10330 10328 10326 10325 10323 10321 10319 10317 10315 10313 10311 10310 10308 10305 10303 10301 10300 10297 10295 10293 10291 10290 10288 10287 10285 10284 10283 10281 10281 10280 10279 10279 10278 10278 10278
10431 10430 10428 10428 10427 10425 10422 10420 10419 10418 10416 10414 10411 10408 10405 10402 10399 10396 10395 10392 10390 10387 10385 10382 10378 10375 10372 10370 10368 10365 10363 10361 10360 10358 10356 10354 10351 10348 10345 10343 10341 10338 10336 10335 10333 10331 10329 10328 10326 10324 10322 10320 10318 10316 10314 10312 10310 10308 10306 10304 10302 10300 10298 10296 10294 10291 10290 10288 10285 10283 10281 10280 10278 10276 10274 10273 10271 10270 10269 10268 10267 10266 10266 10266 10265 10265
10426 10425 10423 10421 10421 10420 10418 10414 10412 10411 10410 10408 10405 10402 10400 10396 10393 10390 10386 10384 10382 10380 10378 10376 10372 10368 10365 10361 10360 10358 10356 10354 10352 10350 10348 10345 10342 10338 10336 10333 10331 10329 10327 10325 10323 10321 10319 10317 10315 10313 10311 10309 10306 10305 10303 10301 10299 10297 10295 10293 10291 10288 10286 10285 10282 10280 10278 10276 10273 10271 10269 10267 10265 10263 10261 10260 10258 10257 10256 10255 10254 10253 10253 10253 10253 10253
10421 10420 10418 10416 10415 10413 10412 10410 10406 10405 10403 10401 10398 10395 10393 10391 10388 10385 10380 10376 10374 10372 10370 10368 10365 10362 10358 10354 10351 10350 10350 10348 10345 10341 10339 10336 10333 10330 10327 10325 10323 10320 10318 10315 10313 10311 10309 10306 10305 10302 10300 10298 10295 10293 10291 10290 10288 10285 10283 10281 10279 10277 10275 10273 10271 10268 10266 10264 10261 10260 10257 10255 10253 10250 10249 10247 10246 10245 10243 10242 10241 10241 10241 10241 10240 10240
10416 10415 10413 10411 10410 10408 10406 10403 10401 10399 10396 10394 10391 10387 10385 10383 10382 10380 10376 10371 10368 10365 10363 10360 10357 10355 10352 10348 10345 10343 10341 10341 10338 10335 10331 10326 10323 10321 10319 10317 10315 10311 10309 10306 10303 10300 10298 10296 10293 10290 10288 10286 10284 10282 10280 10278 10276 10274 10272 10270 10268 10266 10264 10261 10260 10257 10255 10253 10250 10247 10245 10242 10240 10238 10236 10234 10233 10232 10231 10230 10229 10229 10228 10228 10228 10228
10411 10410 10408 10406 10404 10401 10400 10397 10395 10392 10390 10387 10385 10381 10377 10375 10374 10373 10370 10365 10361 10359 10356 10353 10349 10346 10343 10341 10340 10338 10336 10334 10330 10326 10323 10318 10315 10313 10311 10310 10306 10303 10300 10296 10293 10290 10286 10285 10282 10279 10276 10275 10273 10271 10269 10267 10265 10263 10261 10259 10257 10255 10253 10251 10248 10246 10243 10241 10238 10235 10233 10230 10228 10226 10224 10223 10222 10221 10219 10219 10218 10218 10217 10217 10217 10217
10406 10405 10403 10401 10398 10396 10393 10391 10388 10385 10382 10380 10378 10375 10371 10369 10366 10365 10361 10358 10355 10353 10351 10347 10342 10338 10335 10333 10332 10331 10330 10328 10323 10319 10315 10310 10307 10306 10305 10302 10297 10292 10290 10287 10283 10279 10275 10273 10271 10268 10265 10263 10261 10260 10258 10256 10255 10253 10251 10249 10246 10245 10243 10240 10238 10235 10232 10229 10226 10224 10221 10219 10217 10215 10213 10212 10211 10210 10209 10208 10208 10207 10206 10206 10206 10206
10402 10400 10398 10395 10391 10389 10387 10385 10381 10378 10375 10373 10371 10368 10365 10362 10360 10357 10355 10351 10347 10345 10343 10340 10335 10331 10327 10326 10326 10326 10325 10321 10316 10311 10307 10302 10299 10297 10297 10295 10289 10283 10279 10276 10273 10269 10265 10262 10260 10257 10254 10252 10250 10249 10248 10246 10244 10242 10240 10238 10236 10234 10231 10229 10226 10224 10221 10218 10215 10213 10210 10208 10206 10204 10203 10202 10201 10199 10199 10198 10198 10197 10196 10196 10196 10195
10396 10395 10391 10388 10385 10383 10380 10378 10375 10372 10368 10366 10364 10362 10359 10355 10352 10350 10347 10344 10340 10338 10335 10332 10328 10323 10318 10316 10317 10319 10319 10315 10309 10304 10300 10295 10290 10288 10287 10285 10280 10273 10268 10265 10263 10259 10255 10251 10248 10246 10243 10241 10239 10238 10237 10236 10234 10232 10230 10228 10226 10224 10221 10218 10216 10213 10210 10207 10204 10202 10200 10198 10196 10194 10193 10192 10191 10190 10189 10189 10188 10187 10186 10186 10186 10185
10390 10388 10385 10383 10379 10376 10373 10371 10368 10366 10363 10360 10357 10355 10352 10349 10345 10342 10340 10336 10333 10331 10327 10325 10321 10317 10312 10308 10306 10308 10310 10309 10303 10296 10291 10287 10282 10278 10277 10276 10271 10265 10258 10255 10251 10248 10245 10241 10238 10234 10233 10231 10229 10229 10227 10226 10224 10223 10221 10218 10216 10213 10211 10208 10205 10202 10199 10197 10194 10193 10190 10188 10187 10185 10184 10183 10182 10181 10180 10179 10178 10178 10177 10176 10176 10176
10385 10382 10379 10376 10373 10370 10366 10364 10361 10358 10356 10353 10350 10348 10345 10341 10338 10336 10333 10330 10326 10323 10320 10316 10313 10310 10307 10303 10299 10298 10300 10300 10296 10290 10283 10278 10273 10269 10267 10265 10261 10255 10249 10245 10241 10238 10234 10230 10227 10224 10223 10221 10221 10219 10218 10216 10215 10213 10211 10209 10206 10203 10201 10198 10195 10193 10190 10188 10186 10183 10181 10179 10178 10176 10175 10174 10173 10172 10171 10170 10169 10168 10168 10167 10166 10166
10378 10375 10373 10370 10366 10363 10360 10357 10355 10352 10349 10346 10343 10341 10337 10333 10331 10328 10325 10322 10319 10316 10313 10309 10305 10302 10300 10297 10293 10291 10291 10291 10288 10282 10275 10270 10264 10260 10256 10255 10251 10245 10239 10234 10231 10227 10224 10220 10217 10215 10214 10213 10211 10211 10209 10208 10206 10204 10202 10199 10197 10194 10191 10189 10186 10184 10181 10179 10177 10175 10173 10171 10169 10168 10167 10166 10164 10163 10162 10161 10161 10159 10159 10158 10158 10157
10371 10368 10366 10363 10360 10356 10353 10350 10348 10346 10343 10340 10337 10334 10330 10326 10323 10321 10318 10315 10312 10308 10305 10302 10298 10295 10292 10290 10287 10284 10283 10283 10279 10273 10266 10261 10255 10250 10246 10245 10241 10235 10229 10224 10221 10218 10214 10210 10207 10205 10204 10204 10203 10202 10201 10199 10197 10195 10193 10190 10188 10185 10183 10180 10178 10176 10173 10171 10169 10167 10165 10163 10162 10161 10159 10158 10156 10156 10154 10153 10152 10151 10150 10149 10149 10148
10365 10361 10359 10358 10355 10351 10346 10343 10341 10339 10336 10334 10330 10327 10323 10320 10316 10313 10310 10308 10305 10301 10297 10294 10291 10288 10285 10283 10279 10276 10274 10273 10270 10265 10258 10251 10245 10240 10237 10235 10231 10226 10219 10214 10211 10208 10204 10201 10198 10196 10195 10194 10194 10193 10192 10190 10189 10186 10184 10181 10179 10176 10174 10172 10170 10168 10166 10163 10161 10159 10158 10156 10154 10153 10151 10150 10149 10148 10147 10146 10144 10144 10143 10142 10141 10140
10359 10355 10352 10351 10348 10345 10341 10338 10335 10333 10330 10328 10324 10320 10316 10313 10310 10306 10303 10300 10297 10294 10290 10286 10283 10280 10277 10274 10271 10267 10265 10264 10261 10256 10250 10243 10236 10229 10226 10225 10222 10216 10210 10205 10201 10198 10194 10191 10189 10188 10186 10186 10185 10184 10183 10182 10180 10178 10176 10173 10171 10168 10166 10164 10162 10160 10158 10156 10154 10152 10150 10148 10146 10145 10144 10143 10142 10141 10139 10139 10138 10136 10135 10134 10133 10132
10353 10350 10346 10344 10341 10338 10335 10332 10329 10326 10323 10321 10318 10314 10310 10308 10304 10300 10296 10293 10290 10286 10282 10278 10274 10270 10268 10265 10262 10259 10256 10255 10251 10248 10241 10234 10227 10221 10217 10215 10212 10207 10201 10196 10193 10189 10185 10182 10180 10179 10178 10177 10176 10175 10174 10173 10171 10169 10167 10164 10163 10160 10158 10156 10154 10153 10150 10148 10146 10144 10142 10141 10139 10138 10137 10136 10135 10134 10133 10132 10131 10129 10128 10127 10126 10124
10347 10344 10341 10338 10335 10332 10329 10326 10323 10320 10317 10314 10310 10307 10304 10301 10298 10294 10290 10286 10283 10279 10275 10270 10265 10261 10257 10255 10252 10249 10246 10244 10242 10238 10232 10225 10218 10213 10209 10206 10203 10198 10193 10188 10184 10181 10177 10173 10171 10170 10169 10168 10168 10166 10166 10164 10163 10161 10159 10156 10154 10153 10151 10149 10147 10145 10143 10141 10138 10136 10134 10133 10131 10131 10129 10129 10128 10128 10126 10125 10124 10123 10121 10120 10119 10118
10341 10338 10335 10331 10328 10326 10323 10320 10316 10313 10310 10307 10303 10300 10296 10293 10290 10286 10283 10279 10275 10271 10267 10262 10257 10252 10248 10245 10241 10238 10235 10234 10232 10228 10223 10216 10209 10204 10200 10198 10195 10190 10184 10180 10177 10173 10169 10166 10164 10163 10161 10160 10159 10158 10158 10156 10154 10153 10151 10149 10147 10145 10144 10142 10140 10138 10135 10133 10131 10129 10127 10125 10124 10123 10123 10122 10121 10121 10119 10119 10118 10116 10114 10113 10112 10111
10335 10331 10328 10325 10322 10319 10316 10313 10310 10306 10303 10300 10296 10293 10289 10285 10281 10277 10273 10270 10266 10263 10258 10253 10248 10243 10238 10235 10231 10228 10225 10223 10221 10218 10214 10208 10201 10195 10191 10189 10187 10183 10178 10173 10169 10166 10162 10158 10156 10155 10154 10153 10152 10151 10149 10149 10147 10145 10143 10141 10139 10138 10136 10134 10133 10131 10128 10126 10123 10121 10119 10118 10117 10116 10116 10115 10114 10114 10113 10111 10110 10109 10108 10106 10104 10104
10328 10325 10321 10318 10315 10311 10308 10305 10302 10299 10296 10293 10290 10286 10282 10278 10274 10269 10264 10260 10257 10254 10249 10243 10238 10233 10229 10224 10221 10218 10216 10214 10211 10208 10204 10199 10193 10188 10183 10181 10179 10175 10171 10166 10162 10158 10154 10151 10149 10148 10147 10146 10144 10144 10143 10141 10140 10138 10136 10134 10133 10131 10129 10128 10126 10124 10121 10119 10116 10114 10112 10111 10110 10109 10109 10108 10108 10106 10106 10104 10103 10102 10100 10099 10098 10096
10320 10317 10314 10311 10308 10305 10301 10298 10295 10291 10288 10285 10281 10278 10275 10271 10266 10261 10255 10251 10248 10244 10239 10234 10229 10225 10220 10216 10212 10209 10207 10205 10203 10199 10196 10191 10185 10180 10176 10174 10171 10168 10164 10159 10155 10151 10148 10144 10142 10141 10140 10139 10138 10137 10136 10134 10133 10131 10129 10128 10126 10124 10123 10121 10119 10117 10114 10112 10109 10107 10105 10104 10103 10102 10101 10101 10100 10099 10098 10097 10096 10094 10093 10091 10091 10089
10313 10310 10307 10304 10301 10297 10294 10291 10287 10284 10281 10278 10274 10270 10266 10263 10259 10253 10247 10243 10239 10234 10229 10224 10220 10216 10213 10208 10204 10201 10198 10197 10194 10191 10188 10182 10177 10172 10169 10166 10164 10161 10158 10154 10149 10144 10141 10138 10136 10134 10133 10133 10131 10131 10129 10128 10126 10124 10122 10121 10119 10118 10116 10115 10113 10111 10108 10106 10103 10100 10098 10097 10096 10095 10094 10094 10093 10092 10091 10089 10088 10087 10086 10084 10083 10083
10306 10303 10300 10296 10293 10290 10287 10283 10280 10276 10273 10270 10266 10262 10258 10254 10250 10245 10239 10234 10230 10225 10220 10216 10211 10208 10204 10201 10196 10193 10189 10188 10187 10184 10180 10174 10169 10164 10162 10159 10156 10154 10151 10148 10143 10139 10134 10131 10129 10128 10126 10126 10125 10124 10123 10122 10120 10118 10116 10114 10113 10111 10110 10108 10107 10104 10102 10099 10096 10094 10092 10090 10089 10089 10088 10087 10086 10084 10083 10082 10081 10079 10078 10078 10076 10076
10299 10296 10293 10289 10286 10283 10280 10276 10273 10269 10265 10261 10258 10253 10249 10245 10241 10236 10231 10226 10221 10217 10212 10207 10203 10199 10196 10193 10189 10185 10181 10179 10178 10176 10173 10168 10162 10158 10155 10152 10148 10146 10144 10142 10138 10133 10129 10125 10123 10121 10119 10119 10118 10118 10117 10116 10114 10111 10109 10108 10106 10104 10103 10102 10101 10098 10096 10093 10090 10088 10086 10084 10083 10083 10082 10081 10079 10078 10076 10075 10074 10073 10071 10071 10070 10069
10292 10289 10286 10283 10279 10276 10273 10269 10265 10261 10258 10253 10249 10245 10241 10236 10231 10227 10222 10218 10213 10208 10204 10199 10195 10191 10189 10186 10183 10179 10175 10173 10171 10169 10166 10161 10156 10151 10149 10145 10142 10139 10137 10135 10133 10129 10124 10120 10117 10114 10113 10112 10111 10111 10111 10109 10108 10106 10103 10101 10099 10098 10097 10096 10094 10093 10090 10087 10084 10082 10080 10078 10078 10077 10076 10075 10073 10072 10070 10069 10067 10066 10065 10064 10063 10063
10285 10282 10279 10276 10273 10269 10265 10261 10258 10254 10250 10245 10241 10236 10231 10227 10223 10218 10213 10209 10204 10200 10196 10191 10188 10184 10181 10178 10175 10172 10169 10166 10164 10161 10158 10154 10149 10145 10142 10139 10136 10133 10130 10128 10126 10124 10121 10116 10113 10109 10107 10105 10104 10104 10103 10103 10101 10099 10098 10095 10093 10092 10091 10089 10088 10086 10084 10081 10078 10076 10074 10073 10072 10071 10071 10069 10068 10066 10064 10063 10061 10060 10059 10058 10058 10057
10279 10276 10272 10269 10265 10261 10258 10253 10250 10245 10241 10236 10231 10227 10223 10218 10213 10209 10204 10200 10196 10192 10188 10184 10181 10177 10173 10170 10167 10164 10162 10159 10158 10155 10152 10148 10144 10139 10136 10132 10129 10126 10124 10121 10119 10117 10114 10112 10109 10106 10102 10099 10098 10096 10096 10096 10094 10093 10091 10089 10088 10086 10085 10084 10082 10080 10078 10075 10073 10071 10069 10068 10067 10066 10065 10064 10062 10061 10059 10057 10056 10054 10053 10053 10052 10051
10271 10268 10265 10261 10257 10253 10248 10245 10240 10236 10231 10227 10223 10218 10214 10209 10204 10200 10196 10191 10188 10184 10180 10177 10174 10171 10167 10164 10160 10157 10154 10153 10151 10149 10146 10142 10138 10134 10129 10126 10123 10121 10118 10115 10113 10111 10108 10106 10104 10101 10098 10094 10092 10090 10089 10089 10088 10086 10085 10083 10082 10080 10079 10078 10076 10074 10072 10069 10067 10065 10064 10063 10061 10061 10059 10058 10057 10055 10054 10052 10051 10049 10048 10048 10046 10046
10264 10260 10256 10252 10248 10244 10239 10235 10231 10227 10223 10218 10214 10210 10206 10201 10196 10192 10188 10183 10179 10176 10173 10169 10166 10164 10161 10158 10154 10151 10148 10146 10144 10142 10139 10136 10133 10128 10124 10120 10117 10115 10112 10109 10108 10105 10103 10100 10098 10095 10093 10089 10086 10084 10083 10082 10081 10080 10079 10078 10076 10074 10074 10073 10071 10069 10066 10064 10061 10059 10058 10057 10056 10056 10054 10053 10052 10051 10049 10047 10046 10044 10043 10043 10041 10041
10256 10251 10247 10243 10239 10235 10231 10226 10223 10218 10214 10210 10206 10201 10197 10193 10188 10184 10179 10176 10172 10169 10165 10162 10159 10156 10154 10151 10148 10146 10143 10140 10138 10136 10133 10130 10127 10123 10118 10114 10111 10109 10107 10104 10102 10100 10098 10095 10093 10090 10088 10084 10082 10079 10077 10076 10075 10074 10073 10071 10070 10069 10069 10068 10066 10064 10061 10059 10056 10054 10053 10052 10051 10050 10049 10049 10048 10046 10044 10043 10041 10040 10039 10038 10036 10036
10248 10243 10239 10234 10231 10227 10223 10218 10214 10210 10206 10202 10198 10193 10189 10184 10180 10176 10173 10169 10165 10162 10159 10156 10153 10149 10147 10145 10143 10140 10137 10134 10132 10130 10128 10124 10121 10118 10114 10109 10106 10104 10101 10099 10097 10095 10093 10090 10088 10085 10082 10079 10077 10074 10072 10071 10069 10068 10066 10064 10064 10063 10063 10063 10062 10059 10057 10054 10051 10049 10048 10047 10046 10045 10044 10044 10043 10042 10040 10039 10037 10036 10034 10033 10032 10031
10239 10235 10231 10226 10223 10219 10214 10210 10206 10203 10198 10194 10190 10186 10181 10177 10173 10169 10166 10162 10159 10155 10152 10149 10146 10143 10141 10138 10136 10134 10132 10129 10127 10124 10122 10119 10116 10113 10109 10105 10101 10098 10096 10094 10092 10090 10088 10086 10083 10081 10078 10074 10072 10069 10067 10066 10064 10062 10060 10059 10058 10058 10058 10058 10057 10055 10053 10049 10047 10045 10043 10043 10041 10041 10040 10039 10039 10038 10036 10034 10033 10031 10030 10029 10028 10027
10231 10227 10223 10218 10215 10211 10207 10203 10199 10194 10191 10186 10182 10178 10174 10170 10166 10163 10159 10156 10153 10149 10146 10143 10140 10138 10135 10133 10131 10128 10126 10124 10121 10119 10116 10114 10111 10108 10104 10100 10097 10094 10091 10089 10087 10085 10083 10081 10079 10076 10074 10071 10068 10064 10062 10060 10058 10057 10055 10054 10053 10052 10053 10053 10053 10051 10048 10045 10043 10041 10039 10038 10038 10037 10036 10036 10035 10034 10032 10031 10029 10028 10026 10026 10024 10023
10223 10219 10214 10211 10207 10203 10199 10196 10191 10188 10183 10179 10175 10171 10167 10163 10159 10156 10153 10149 10146 10143 10141 10138 10134 10131 10129 10127 10125 10123 10121 10118 10116 10114 10111 10109 10106 10103 10099 10096 10092 10089 10086 10084 10082 10080 10078 10076 10074 10072 10069 10067 10064 10061 10058 10055 10053 10052 10051 10049 10048 10048 10048 10048 10048 10046 10044 10041 10039 10037 10036 10034 10034 10033 10033 10032 10031 10029 10028 10026 10025 10024 10023 10022 10021 10020
10215 10211 10207 10203 10199 10196 10192 10188 10184 10180 10176 10172 10168 10164 10160 10157 10153 10149 10146 10143 10140 10137 10134 10131 10129 10126 10123 10121 10119 10118 10116 10114 10111 10109 10106 10103 10100 10097 10094 10090 10088 10084 10082 10079 10077 10075 10073 10072 10070 10068 10066 10063 10060 10056 10053 10051 10049 10048 10046 10046 10045 10044 10044 10043 10043 10041 10039 10037 10035 10033 10032 10031 10030 10029 10029 10028 10028 10026 10024 10023 10021 10020 10019 10019 10018 10017
10208 10204 10200 10196 10193 10189 10185 10181 10176 10173 10169 10165 10161 10158 10154 10151 10148 10144 10141 10137 10134 10131 10129 10126 10123 10121 10118 10116 10114 10112 10111 10109 10107 10104 10102 10099 10095 10092 10088 10085 10082 10079 10077 10075 10073 10070 10069 10068 10066 10064 10061 10059 10056 10053 10049 10046 10044 10043 10043 10043 10043 10042 10041 10039 10038 10036 10035 10033 10031 10030 10029 10028 10027 10026 10026 10025 10024 10023 10021 10019 10018 10017 10016 10016 10015 10014
10201 10197 10193 10189 10186 10182 10178 10174 10169 10166 10162 10158 10155 10152 10149 10146 10142 10139 10135 10131 10129 10126 10123 10121 10118 10115 10113 10110 10108 10106 10104 10103 10101 10099 10097 10094 10090 10087 10083 10080 10078 10075 10073 10071 10068 10066 10064 10063 10061 10059 10058 10054 10051 10048 10045 10043 10041 10040 10039 10040 10040 10039 10038 10036 10034 10032 10031 10029 10028 10027 10026 10024 10024 10023 10023 10022 10021 10019 10018 10016 10015 10014 10013 10013 10012 10011
10194 10190 10186 10183 10179 10175 10171 10167 10163 10159 10156 10153 10149 10146 10143 10140 10137 10133 10130 10126 10123 10121 10118 10116 10113 10110 10108 10105 10103 10101 10099 10097 10096 10094 10092 10089 10086 10082 10079 10076 10073 10071 10068 10066 10064 10063 10061 10059 10058 10056 10053 10050 10047 10044 10041 10039 10038 10037 10037 10037 10037 10036 10034 10033 10031 10029 10027 10026 10024 10024 10023 10022 10021 10020 10019 10019 10018 10016 10014 10013 10012 10011 10011 10010 10009 10008
10188 10184 10179 10176 10172 10168 10164 10160 10156 10153 10149 10146 10144 10141 10138 10134 10131 10128 10125 10121 10118 10116 10113 10111 10108 10105 10103 10100 10098 10096 10094 10091 10090 10088 10086 10084 10081 10078 10074 10072 10069 10066 10064 10062 10061 10059 10058 10056 10054 10052 10049 10046 10043 10040 10038 10037 10036 10035 10034 10034 10033 10033 10031 10030 10028 10026 10024 10023 10022 10021 10020 10019 10018 10018 10017 10016 10015 10013 10012 10011 10009 10009 10008 10007 10006 10005
10180 10176 10173 10169 10165 10161 10158 10154 10151 10147 10144 10141 10138 10135 10133 10129 10126 10123 10120 10117 10114 10111 10108 10106 10103 10101 10098 10096 10093 10091 10089 10086 10084 10083 10081 10078 10076 10073 10070 10068 10065 10063 10061 10059 10057 10055 10054 10052 10051 10048 10046 10043 10039 10037 10035 10034 10034 10033 10032 10031 10030 10029 10028 10027 10026 10024 10022 10021 10019 10018 10017 10016 10016 10015 10014 10014 10013 10011 10009 10008 10007 10006 10005 10004 10003 10003
10173 10169 10166 10162 10158 10154 10151 10148 10144 10141 10138 10135 10133 10130 10127 10124 10121 10118 10115 10112 10109 10107 10104 10101 10099 10096 10094 10091 10089 10087 10084 10082 10079 10078 10075 10073 10070 10068 10066 10064 10062 10059 10058 10056 10054 10052 10050 10049 10047 10045 10043 10039 10036 10034 10033 10032 10031 10031 10030 10029 10028 10026 10026 10024 10023 10021 10020 10018 10017 10016 10014 10014 10013 10013 10012 10011 10010 10008 10007 10006 10004 10004 10003 10002 10001 10000
10166 10163 10159 10155 10151 10148 10144 10141 10139 10136 10133 10130 10127 10124 10122 10119 10117 10114 10111 10108 10105 10103 10099 10097 10094 10091 10089 10087 10084 10083 10080 10078 10075 10073 10070 10068 10065 10063 10061 10059 10058 10056 10054 10052 10051 10049 10047 10046 10044 10043 10040 10037 10034 10032 10030 10029 10029 10028 10028 10026 10025 10024 10023 10022 10021 10019 10018 10016 10015 10014 10013 10011 10011 10010 10009 10008 10008 10006 10005 10003 10002 10001 10000 9999 9998 9998
10160 10156 10153 10149 10145 10142 10139 10136 10133 10130 10128 10124 10122 10119 10117 10114 10112 10109 10106 10103 10101 10098 10095 10093 10089 10087 10084 10082 10080 10078 10076 10073 10071 10068 10066 10063 10061 10059 10057 10056 10054 10053 10051 10049 10047 10046 10044 10043 10042 10040 10038 10035 10033 10030 10028 10027 10026 10026 10025 10024 10023 10022 10021 10019 10018 10018 10016 10014 10013 10012 10011 10009 10008 10008 10007 10006 10005 10004 10003 10001 10000 9999 9998 9997 9996 9995
10154 10150 10147 10143 10140 10136 10133 10131 10128 10125 10122 10119 10117 10114 10112 10109 10107 10104 10102 10099 10096 10094 10091 10088 10085 10083 10080 10078 10076 10074 10071 10069 10067 10064 10061 10059 10057 10055 10053 10052 10050 10049 10047 10045 10044 10043 10041 10040 10039 10038 10036 10034 10031 10029 10027 10026 10024 10023 10023 10021 10021 10019 10019 10018 10016 10015 10014 10013 10011 10010 10009 10008 10006 10005 10004 10004 10003 10001 10000 9999 9998 9997 9996 9995 9994 9993